Погода в Ольгино

Россия / Омская область     54°15′53″N   71°40′38″E
темп.,
°C
ветер,
м/с
пор.,
м/с
влажн.,
%
обл.,
%
осадки,
мм/ч
давл.,
гПа
погр.,
м
7 мая, пт
пт700:00+12сз6124336 0.0 1012478
03:00+10сз411500 0.0 1014287
06:00+8зсз38570 0.0 1017166
09:00+12зсз79380 0.0 10181036
12:00+15зсз79271 0.0 10201271
15:00+18сз78221 0.0 10201401
18:00+18сз56230 0.0 10201329
21:00+15зсз22341 0.0 102111
8 мая, сб
сб800:00+13зсз11382 0.0 102210
03:00+12ююз11402 0.0 102210
06:00+11ю22432 0.0 102210
09:00+16ю23325 0.0 1022359
12:00+19ююв332597 0.0 10211307
15:00+22ююв34217 0.0 10191853
18:00+22юв451957 0.0 10182316
21:00+18юв332998 0.0 101725
9 мая, вс
вс900:00+16вюв3334100 0.0 101728
03:00+15в3637100 0.0 101690
06:00+16в5113874 0.0 1015238
09:00+19вюв7103188 0.0 1015614
12:00+22вюв8923100 0.0 10142095
15:00+20вюв7931100 0.0 10141121
18:00+20всв81233100 0.0 10131032
21:00+15юв71361100 0.1 1014707
10 мая, пн
пн1000:00+13в81686100 4.7 1014969
03:00+12всв91785100 7.2 1014894
06:00+12всв71576100 9.1 1014557
09:00+14св71255100 0.1 1016637
12:00+18всв81136100 0.1 10161554
15:00+20св893133 0.0 10162360
18:00+20св783173 0.0 10172529
21:00+15св49475 0.0 1019173
11 мая, вт
вт1100:00+12св335872 0.0 102030
03:00+11всв22570 0.0 102119
06:00+10св11575 0.0 102210
09:00+15зюз014318 0.0 1022289
12:00+18зюз3334100 0.0 10221423
15:00+20з3431100 0.0 10211735
18:00+20зюз4432100 0.0 10201739
21:00+17юз4649100 0.0 1020108